DW2270 Weather Reports


time (UTC)temp
C
wind
direction
speed
KPH
gust
KPH
rain 1hr
cm
rain 24hr
cm
rain mn
cm
humidity
%
barometer
mb
20260506105157 24 83 0.0 1.6 0.00 0.00 0.00 2 1007.9
20260506104215 25 107 0.0 0.0 0.00 0.00 0.00 3 1007.8
20260506100926 25 90 0.0 1.6 0.00 0.00 0.00 3 1007.8
20260506095937 25 111 0.0 1.6 0.00 0.00 0.00 3 1007.8
20260506094934 25 109 1.6 19.3 0.00 0.00 0.00 3 1007.7
20260506093917 25 95 1.6 19.3 0.00 0.00 0.00 2 1007.5
20260506092925 25 107 0.0 9.7 0.00 0.00 0.00 2 1007.4
20260506091901 25 159 0.0 6.4 0.00 0.00 0.00 2 1007.4
20260506085814 25 92 0.0 14.5 0.00 0.00 0.00 4 1007.4
20260506084830 25 203 0.0 14.5 0.00 0.00 0.00 4 1007.3
20260506083817 25 90 0.0 8.0 0.00 0.00 0.00 4 1007.4
20260506082827 25 96 0.0 8.0 0.00 0.00 0.00 5 1007.4
20260506081758 25 77 0.0 3.2 0.00 0.00 0.00 5 1007.5
20260506080823 25 91 0.0 9.7 0.00 0.00 0.00 6 1007.6
20260506072747 25 92 0.0 9.7 0.00 0.00 0.00 7 1008.1
20260506071722 25 108 0.0 9.7 0.00 0.00 0.00 7 1008.3
20260506060344 25 103 0.0 9.7 0.00 0.00 0.00 12 1008.5
20260506051205 26 117 1.6 16.1 0.00 0.00 0.00 19 1008.3
20260506050201 26 115 3.2 14.5 0.00 0.00 0.00 20 1008.4
20260506044202 26 146 1.6 11.3 0.00 0.00 0.00 23 1008.4
20260506043129 26 180 0.0 8.0 0.00 0.00 0.00 24 1008.3
20260506042144 26 153 1.6 12.9 0.00 0.00 0.00 25 1008.4
20260506041128 26 98 0.0 12.9 0.00 0.00 0.00 27 1008.4
20260506040111 26 96 0.0 11.3 0.00 0.00 0.00 28 1008.3
20260506035105 26 97 1.6 17.7 0.00 0.00 0.00 29 1008.1
20260506034127 26 90 1.6 17.7 0.00 0.00 0.00 30 1008.0
20260506033128 26 112 1.6 9.7 0.00 0.00 0.00 32 1008.0
20260506032107 26 69 0.0 11.3 0.00 0.00 0.00 34 1008.0
20260506031042 26 182 0.0 3.2 0.00 0.00 0.00 36 1008.0
20260506030041 26 107 0.0 3.2 0.00 0.00 0.00 37 1007.8
20260506023935 26 108 0.0 1.6 0.00 0.00 0.00 41 1007.5
20260506022916 26 108 1.6 6.4 0.00 0.00 0.00 42 1007.4
20260506021853 26 80 0.0 6.4 0.00 0.00 0.00 43 1007.1
20260506020820 26 81 1.6 9.7 0.00 0.00 0.00 44 1007.0
20260506014735 26 159 1.6 11.3 0.00 0.00 0.00 45 1006.7
20260506013717 27 104 1.6 11.3 0.00 0.00 0.00 46 1006.4
20260506012719 27 103 0.0 3.2 0.00 0.00 0.00 47 1006.4
20260506011712 27 169 1.6 12.9 0.00 0.00 0.00 48 1006.2
20260506010711 27 138 1.6 12.9 0.00 0.00 0.00 49 1006.1
20260506005713 27 170 1.6 11.3 0.00 0.00 0.00 50 1006.0
20260506004705 27 96 0.0 9.7 0.00 0.00 0.00 52 1005.9
20260506003644 27 89 0.0 12.9 0.00 0.00 0.00 53 1005.9
20260506002631 27 97 0.0 6.4 0.00 0.00 0.00 55 1005.9
20260506001638 27 113 0.0 4.8 0.00 0.00 0.00 56 1005.9
20260506000604 27 121 0.0 19.3 0.00 0.00 0.00 57 1006.0
20260505234444 28 74 0.0 9.7 0.00 0.00 0.00 57 1005.9
20260505233507 28 93 0.0 12.9 0.00 0.00 0.00 58 1005.8
20260505232459 28 86 1.6 12.9 0.00 0.00 0.00 58 1005.7
20260505231505 28 250 1.6 12.9 0.00 0.00 0.00 59 1005.7
20260505230522 28 90 1.6 12.9 0.00 0.00 0.00 60 1005.8
20260505225541 28 91 0.0 6.4 0.00 0.00 0.00 58 1005.8
20260505221138 29 88 3.2 12.9 0.00 0.00 0.00 59 1005.7
20260505220200 29 61 0.0 9.7 0.00 0.00 0.00 57 1005.7
20260505215222 29 244 1.6 11.3 0.00 0.00 0.00 59 1005.9
20260505213118 29 100 1.6 12.9 0.00 0.00 0.00 60 1006.3
20260505205829 29 91 1.6 12.9 0.00 0.00 0.00 62 1006.7
20260505204759 29 55 3.2 12.9 0.00 0.00 0.00 63 1006.7
20260505203807 30 134 1.6 12.9 0.00 0.00 0.00 62 1007.0
20260505202756 29 151 1.6 12.9 0.00 0.00 0.00 60 1007.0
20260505200658 29 71 1.6 17.7 0.00 0.00 0.00 62 1007.2
20260505194535 29 147 1.6 12.9 0.00 0.00 0.00 59 1007.5
20260505192328 28 78 1.6 11.3 0.00 0.00 0.00 54 1007.7
20260505191314 28 92 1.6 11.3 0.00 0.00 0.00 53 1007.8
20260505190339 28 73 0.0 11.3 0.00 0.00 0.00 49 1007.9
20260505185320 27 98 1.6 11.3 0.00 0.00 0.00 51 1008.1
20260505184343 27 165 0.0 4.8 0.00 0.00 0.00 41 1008.0
20260505182244 27 160 0.0 6.4 0.00 0.00 0.00 36 1008.3
20260505181239 27 80 0.0 8.0 0.00 0.00 0.00 35 1008.3
20260505180238 26 309 0.0 14.5 0.00 0.00 0.00 32 1008.4
20260505175236 26 248 1.6 14.5 0.00 0.00 0.00 30 1008.4
20260505174224 26 92 0.0 6.4 0.00 0.00 0.00 29 1008.5
20260505173215 26 92 1.6 6.4 0.00 0.00 0.00 29 1008.7
20260505172146 26 117 1.6 6.4 0.00 0.00 0.00 31 1008.8
20260505171156 26 236 1.6 4.8 0.00 0.00 0.00 27 1008.8
20260505170152 26 227 0.0 9.7 0.00 0.00 0.00 23 1008.8
20260505165205 26 84 0.0 4.8 0.00 0.00 0.00 24 1008.7
20260505163044 25 86 0.0 9.7 0.00 0.00 0.00 17 1008.9
20260505160943 25 253 0.0 6.4 0.00 0.00 0.00 18 1008.8
20260505151657 25 163 1.6 12.9 0.00 0.00 0.00 22 1008.6
20260505150716 25 127 1.6 9.7 0.00 0.00 0.00 20 1008.5
20260505140549 23 92 1.6 12.9 0.00 0.00 0.00 6 1008.3
20260505124446 22 153 0.0 11.3 0.00 0.00 0.00 1 1007.9
20260505123448 22 105 1.6 11.3 0.00 0.00 0.00 1 1007.6
20260505122437 22 67 0.0 9.7 0.00 0.00 0.00 1 1008.0
20260505121421 22 82 0.0 4.8 0.00 0.00 0.00 1 1008.1
20260505120409 22 87 0.0 0.0 0.00 0.00 0.00 1 1008.0
20260505115418 22 84 0.0 4.8 0.00 0.00 0.00 2 1007.9
20260505114428 22 119 1.6 9.7 0.00 0.00 0.00 3 1007.4
20260505113424 22 117 0.0 9.7 0.00 0.00 0.00 3 1007.8
20260505112351 22 95 0.0 3.2 0.00 0.00 0.00 4 1007.8
20260505111329 22 306 0.0 6.4 0.00 0.00 0.00 4 1007.8